CST,Max TemperatureF,Mean TemperatureF,Min TemperatureF,Max Dew PointF,MeanDew PointF,Min DewpointF,Max Humidity, Mean Humidity, Min Humidity, Max Sea Level PressureIn, Mean Sea Level PressureIn, Min Sea Level PressureIn, Max VisibilityMiles, Mean VisibilityMiles, Min VisibilityMiles, Max Wind SpeedMPH, Mean Wind SpeedMPH, Max Gust SpeedMPH,PrecipitationIn, CloudCover, Events, WindDirDegrees
2012-12-1,73,50,27,30,27,23,86,55,20,29.98,29.88,29.80,10,10,8,20,7,26,0.00,0,,305
2012-12-2,72,50,28,34,28,22,75,52,19,30.04,29.88,29.62,10,10,7,28,8,36,0.00,0,,201
2012-12-3,60,42,24,37,25,13,92,58,24,30.22,29.91,29.57,10,10,7,32,10,39,0.00,0,,321
2012-12-4,58,39,19,16,14,11,68,41,18,30.40,30.30,30.23,10,10,7,13,8,,0.00,0,,240
2012-12-5,63,45,27,28,22,14,61,40,24,30.21,29.99,29.83,10,10,10,20,7,23,0.00,0,,189
2012-12-6,50,35,20,32,19,12,71,46,24,30.06,29.96,29.81,10,10,10,26,10,36,0.00,0,,357
2012-12-7,52,36,20,22,19,13,69,55,28,30.06,29.97,29.88,10,10,8,15,6,,0.01,5,,296
2012-12-8,50,37,23,30,23,19,81,60,34,30.03,29.89,29.74,10,10,10,20,8,24,T,5,,174
2012-12-9,36,20,3,23,5,-4,70,54,42,30.40,30.21,29.93,10,10,10,33,20,41,0.00,1,,320
2012-12-10,43,20,-4,10,2,-8,76,53,23,30.34,30.10,29.94,10,10,7,17,8,24,0.00,1,,270
2012-12-11,46,29,12,16,10,5,84,53,22,30.14,30.05,29.96,10,10,10,13,9,21,0.00,1,,242
2012-12-12,60,39,18,14,12,7,53,31,16,29.95,29.88,29.79,10,10,10,15,9,21,0.00,0,,191
2012-12-13,56,39,21,18,15,11,68,44,23,30.11,30.02,29.93,10,10,10,9,5,,0.00,0,,249
2012-12-14,38,25,12,36,25,7,100,82,48,29.99,29.69,29.45,10,7,2,13,4,,0.18,5,Rain,347
2012-12-15,49,40,30,37,32,26,100,80,48,29.80,29.62,29.45,10,8,2,15,11,,0.04,5,Rain,310
2012-12-16,36,30,24,31,27,24,100,93,75,29.86,29.79,29.72,10,5,0,16,7,,0.15,6,Fog-Snow,294
2012-12-17,49,32,15,33,23,13,89,74,54,29.84,29.72,29.57,10,10,6,13,8,,0.00,1,,252
2012-12-18,50,38,26,25,21,15,75,51,25,29.82,29.75,29.61,10,10,10,20,10,25,0.00,1,,281
2012-12-19,36,29,22,31,24,16,100,86,72,30.10,29.81,29.63,10,4,0,40,17,52,0.20,6,Fog-Snow,20
2012-12-20,30,21,12,17,9,3,77,66,55,30.35,30.28,30.12,10,9,4,25,17,25,T,0,Snow,277
2012-12-21,34,22,9,21,13,6,92,76,61,30.37,30.28,30.19,10,10,5,14,7,,0.00,0,,252
2012-12-22,39,24,8,24,15,5,92,77,55,30.16,30.11,30.05,10,9,5,14,9,,0.00,0,,270
2012-12-23,28,16,3,20,9,0,96,85,71,30.15,30.04,29.93,10,7,0,8,4,,0.00,2,Fog-Snow,270
2012-12-24,19,12,4,11,7,2,92,81,71,30.27,30.17,30.12,10,8,5,15,5,,0.00,2,,71
2012-12-25,15,6,-4,9,6,-7,92,82,68,30.52,30.38,30.22,10,5,0,21,14,24,0.00,7,Fog-Snow,13
2012-12-26,16,3,-10,8,-2,-14,96,82,71,30.44,30.24,30.04,10,9,4,14,4,,0.00,2,,106
2012-12-27,18,10,1,12,8,-3,88,80,71,30.12,29.97,29.83,10,8,2,15,8,,T,5,Snow,21
2012-12-28,19,9,-1,9,2,-5,88,78,68,30.27,30.18,30.00,10,10,7,14,9,,0.00,1,,285
2012-12-29,28,17,5,16,9,3,84,71,56,30.42,30.31,30.11,10,10,10,15,8,,0.00,0,,244
2012-12-30,28,21,13,16,13,8,84,71,58,30.22,30.12,30.05,10,10,10,12,8,,0.00,0,,257
2012-12-31,24,19,13,21,18,9,93,87,80,30.29,30.16,30.06,10,4,0,12,6,,0.01,7,Fog-Snow,27